Orbital Elements at Epoch 2459200.5 (2020-Dec-17.0) TDB
Reference: JPL 18 (heliocentric ecliptic J2000)
Element | Value | Uncertainty (1-sigma) | Units |
e | .1076257689341538 | 4.6879e-08 | |
a | 2.345631519722317 | 1.3651e-08 | au |
q | 2.093181123776015 | 1.0781e-07 | au |
i | 2.593533074390823 | 4.5221e-06 | deg |
node | 262.3966590789307 | 0.00011505 | deg |
peri | 30.96995988028164 | 0.00011737 | deg |
M | 158.7044144913811 | 2.1666e-05 | deg |
tp | 2458622.038290616793 (2019-May-18.53829062) | 7.9659e-05 | TDB |
period | 1312.163975056055 3.59 | 1.1455e-05 3.136e-08 | d yr |
n | .2743559546242084 | 2.3951e-09 | deg/d |
Q | 2.598081915668619 | 1.5121e-08 | au |
|
| | Orbit Determination Parameters
Additional Information
|